Terminal Aerodrome Forecast
Issued by NWS

Home | Current Version | Previous Version | Graphics & Text | Print | Product List | Glossary On
Versions: 1 2 3 4 5 6 7 8 9 10 11 12 13 14 15 16 17 18 19 20 21 22 23 24 25 26 27 28 29 30 31 32 33 34 35 36 37 38 39 40 41 42 43 44 45 46 47 48
000
FTUS43 KLOT 122109 AAA
TAFGYY
TAF AMD
KGYY 122109Z 1221/1318 32019G28KT P6SM BKN040
     FM130200 32017G24KT P6SM FEW040
     FM130800 31015KT P6SM FEW250
     FM131700 31011KT P6SM FEW250=

USA.gov is the U.S. government's official web portal to all federal, state and local government web resources and services.